CAPE
0 0 0 0 0 0 0 0 0 0 0 0 0 0 0 0 0 0 0 0 0 0 0 0 0 0 0 0 0 0 0 0 0 0 0 0 0 0 0 0 0 0 0 0 0
0 0 0 0 0 0 0 0 0 0 0 0 0 0 0 0 0 0 0 0 0 0 0 0 0 0 0 0 0 0 0 0 0 0 0 0 0 0 0 0 0 0 0 0 0
0 0 0 0 0 0 0 0 0 0 0 0 0 0 0 0 0 0 0 0 0 0 0 0 0 0 0 0 0 0 0 0 0 0 0 0 0 0 0 0 0 0 0 0 0
0 0 0 0 0 0 0 0 0 0 0 0 0 0 0 0 0 0 0 0 0 0 0 0 0 0 0 0 0 0 0 0 0 0 0 0 0 0 0 0 0 0 0 0 0
0 0 0 0 0 0 0 0 0 0 0 0 0 0 0 0 0 0 0 0 0 0 0 0 0 0 0 0 0 0 0 0 0 0 0 0 0 0 0 0 0 0 0 0 0
0 0 0 0 0 0 0 0 0 0 0 0 0 0 0 0 0 0 0 0 0 0 0 0 0 0 0 0 0 0 0 0 0 0 0 0 0 0 0 0 0 0 0 0 0
0 0 0 0 0 0 0 0 0 0 0 0 0 0 0 0 0 0 0 0 0 0 0 0 0 0 0 0 0 0 0 0 0 0 0 0 0 0 0 0 0 0 0 0 0
0 0 0 0 0 0 0 0 0 0 0 0 0 0 0 0 0 0 0 0 0 0 0 0 0 0 0 0 0 0 0 0 0 0 0 0 0 0 0 0 0 0 0 0 0
0 0 0 0 0 0 0 0 0 0 0 0 0 0 0 0 0 0 0 0 0 0 0 0 0 0 0 0 0 0 0 0 0 0 0 0 0 0 0 0 0 0 0 0 0
9 0 0 0 0 0 0 0 0 0 0 0 0 0 0 0 0 0 0 0 0 0 0 0 0 0 0 0 0 0 0 0 0 0 0 0 0 0 0 0 0 0 0 0 0
28 13 0 0 0 0 0 0 0 0 0 0 0 0 0 0 0 0 0 0 0 0 0 0 0 0 0 0 0 0 0 0 0 0 0 0 0 0 0 0 0 0 0 0 0
0 11 6 0 0 0 0 0 0 0 0 0 0 0 0 0 0 0 0 0 0 0 0 0 0 0 0 0 0 0 0 0 0 0 0 0 0 0 0 0 0 0 0 0 0
0 0 2 1 0 0 0 0 0 0 0 0 0 0 0 0 0 0 0 0 0 0 0 0 0 0 0 0 0 0 0 0 0 0 0 0 0 0 0 0 0 0 0 0 0
0 0 1 0 0 0 0 0 0 0 0 0 0 0 0 0 0 0 0 0 0 0 0 0 0 0 0 0 0 0 0 0 0 0 0 0 0 0 0 0 0 0 0 0 0
0 0 1 0 0 0 0 0 0 0 15 0 0 0 0 0 0 0 0 0 0 0 0 0 0 0 0 0 0 0 0 0 0 0 0 0 0 0 0 0 0 0 0 0 0
0 0 0 1 0 0 0 0 0 0 1 0 0 0 0 0 0 0 0 0 0 0 0 0 0 0 0 0 0 0 0 0 0 0 0 0 0 0 0 0 0 0 0 0 0
0 0 0 0 1 0 0 0 0 1 0 0 0 0 0 0 0 0 0 0 0 0 0 0 0 0 0 0 0 0 0 0 0 0 0 0 0 0 0 0 0 0 0 0 0
0 0 0 0 0 3 0 0 9 0 0 0 0 0 0 0 0 0 0 0 0 0 0 0 0 0 0 0 0 0 0 0 0 0 0 0 0 0 0 0 0 0 0 0 0
0 0 0 0 0 6 3 15 0 0 0 0 0 0 0 0 0 0 0 0 0 0 0 0 0 0 0 0 0 0 0 0 0 0 0 0 0 0 0 0 0 0 0 0 0
0 0 0 0 0 29 33 1 0 0 1 0 0 0 0 0 0 0 0 0 0 0 0 0 0 0 0 0 0 0 0 0 0 0 0 0 0 0 0 0 0 0 0 0 0
0 0 0 0 2 5 18 5 0 0 3 14 4 3 0 0 0 0 0 0 0 0 0 0 0 0 0 0 0 0 0 0 0 0 0 0 0 0 0 0 0 0 0 0 0
0 0 0 8 1 4 0 0 0 1 3 12 8 3 0 0 0 0 0 0 0 0 0 0 0 0 0 0 0 0 0 0 0 0 0 0 0 0 0 0 0 0 0 0 0
0 0 0 21 0 0 0 0 0 2 20 19 15 4 0 5 19 0 0 0 0 0 0 0 0 0 0 0 0 0 0 0 0 0 0 0 0 0 0 0 0 0 0 0 0
1 0 0 6 1 0 0 0 0 0 0 9 15 27 16 5 5 5 0 0 0 0 0 0 0 0 0 0 0 0 0 0 0 0 0 0 0 0 0 0 0 0 0 0 0
3 0 0 0 0 0 11 7 0 0 1 10 0 12 20 13 7 1 0 0 0 0 0 0 0 0 0 0 0 0 0 0 0 0 0 0 0 0 0 0 0 0 0 0 0
0 0 0 0 0 0 0 0 0 1 15 9 0 0 0 14 6 0 0 1 10 0 0 0 0 0 0 0 0 0 0 0 0 0 0 0 0 0 0 0 0 0 0 0 0
32 1 3 0 0 0 0 0 0 0 0 0 0 0 1 0 9 8 13 19 32 5 5 0 0 0 0 0 0 0 0 0 0 0 0 0 0 0 0 0 0 0 0 0 0
CIN
0 0 0 0 0 0 0 0 0 0 0 0 0 0 0 0 0 0 0 0 0 0 0 0 0 0 0 0 0 0 0 0 0 0 0 0 0 0 0 0 0 0 0 0 0
0 0 0 0 0 0 0 0 0 0 0 0 0 0 0 0 0 0 0 0 0 0 0 0 0 0 0 0 0 0 0 0 0 0 0 0 0 0 0 0 0 0 0 0 0
0 0 0 0 0 0 0 0 0 0 0 0 0 0 0 0 0 0 0 0 0 0 0 0 0 0 0 0 0 0 0 0 0 0 0 0 0 0 0 0 0 0 0 0 0
0 0 0 0 0 0 0 0 0 0 0 0 0 0 0 0 0 0 0 0 0 0 0 0 0 0 0 0 0 0 0 0 0 0 0 0 0 0 0 0 0 0 0 0 0
0 0 0 0 0 0 0 0 0 0 0 0 0 0 0 0 0 0 0 0 0 0 0 0 0 0 0 0 0 0 0 0 0 0 0 0 0 0 0 0 0 0 0 0 0
0 0 0 0 0 0 0 0 0 0 0 0 0 0 0 0 0 0 0 0 0 0 0 0 0 0 0 0 0 0 0 0 0 0 0 0 0 0 0 0 0 0 0 0 0
0 0 0 0 0 0 0 0 0 0 0 0 0 0 0 0 0 0 0 0 0 0 0 0 0 0 0 0 0 0 0 0 0 0 0 0 0 0 0 0 0 0 0 0 0
0 0 0 0 0 0 0 0 0 0 0 0 0 0 0 0 0 0 0 0 0 0 0 0 0 0 0 0 0 0 0 0 0 0 0 0 0 0 0 0 0 0 0 0 0
0 0 0 0 0 0 0 0 0 0 0 0 0 0 0 0 0 0 0 0 0 0 0 0 0 0 0 0 0 0 0 0 0 0 0 0 0 0 0 0 0 0 0 0 0
-139 0 0 0 0 0 0 0 0 0 0 0 0 0 0 0 0 0 0 0 0 0 0 0 0 0 0 0 0 0 0 0 0 0 0 0 0 0 0 0 0 0 0 0 0
-108 -142 0 0 0 0 0 0 0 0 0 0 0 0 0 0 0 0 0 0 0 0 0 0 0 0 0 0 0 0 0 0 0 0 0 0 0 0 0 0 0 0 0 0 0
0 -121 -175 0 0 0 0 0 0 0 0 0 0 0 0 0 0 0 0 0 0 0 0 0 0 0 0 0 0 0 0 0 0 0 0 0 0 0 0 0 0 0 0 0 0
0 0 -44 0 0 0 0 0 0 0 0 0 0 0 0 0 0 0 0 0 0 0 0 0 0 0 0 0 0 0 0 0 0 0 0 0 0 0 0 0 0 0 0 0 0
0 0 0 0 0 0 0 0 0 0 0 0 0 0 0 0 0 0 0 0 0 0 0 0 0 0 0 0 0 0 0 0 0 0 0 0 0 0 0 0 0 0 0 0 0
0 0 -1 0 0 0 0 0 0 0 -3 0 0 0 0 0 0 0 0 0 0 0 0 0 0 0 0 0 0 0 0 0 0 0 0 0 0 0 0 0 0 0 0 0 0
0 0 0 0 0 0 0 0 0 0 -4 0 0 0 0 0 0 0 0 0 0 0 0 0 0 0 0 0 0 0 0 0 0 0 0 0 0 0 0 0 0 0 0 0 0
0 0 0 0 -2 0 0 0 0 -3 0 0 0 0 0 0 0 0 0 0 0 0 0 0 0 0 0 0 0 0 0 0 0 0 0 0 0 0 0 0 0 0 0 0 0
0 0 0 0 0 -16 0 0 -8 0 0 0 0 0 0 0 0 0 0 0 0 0 0 0 0 0 0 0 0 0 0 0 0 0 0 0 0 0 0 0 0 0 0 0 0
0 0 0 0 0 -27 -6 -4 -2 -1 0 0 0 0 0 0 0 0 0 0 0 0 0 0 0 0 0 0 0 0 0 0 0 0 0 0 0 0 0 0 0 0 0 0 0
0 0 0 0 0 -11 0 0 -5 -3 -8 0 0 0 0 0 0 0 0 0 0 0 0 0 0 0 0 0 0 0 0 0 0 0 0 0 0 0 0 0 0 0 0 0 0
0 0 0 0 0 0 -1 -6 0 -2 -14 -6 -10 -7 0 0 0 0 0 0 0 0 0 0 0 0 0 0 0 0 0 0 0 0 0 0 0 0 0 0 0 0 0 0 0
0 0 0 -1 0 0 0 0 0 -7 -13 -7 -10 -25 -1 0 0 0 0 0 0 0 0 0 0 0 0 0 0 0 0 0 0 0 0 0 0 0 0 0 0 0 0 0 0
0 0 0 -4 0 0 0 0 0 -2 -3 -4 -2 -8 -3 -5 -3 0 0 0 0 0 0 0 0 0 0 0 0 0 0 0 0 0 0 0 0 0 0 0 0 0 0 0 0
-13 0 0 -2 -4 0 0 0 0 0 0 -6 -4 -6 -6 -11 -4 0 0 0 0 0 0 0 0 0 0 0 0 0 0 0 0 0 0 0 0 0 0 0 0 0 0 0 0
-5 -1 0 0 0 0 -5 -3 0 0 -1 -4 -1 -5 0 0 -6 -4 -6 0 0 0 0 0 0 0 0 0 0 0 0 0 0 0 0 0 0 0 0 0 0 0 0 0 0
0 0 0 0 0 0 0 0 0 -1 -1 -1 0 0 0 -1 -3 0 -7 -1 -6 0 0 0 0 0 0 0 0 0 0 0 0 0 0 0 0 0 0 0 0 0 0 0 0
-3 -2 -13 -1 0 0 0 0 0 0 0 0 0 0 0 0 -3 -3 -4 -6 -9 -5 -4 0 0 0 0 0 0 0 0 0 0 0 0 0 0 0 0 0 0 0 0 0 0
Wind_Speed
15 15 15 15 15 15 15 15 16 17 17 19 19 19 19 19 15 14 15 15 15 18 17 14 12 11 10 11 13 13 10 10 11 12 12 12 13 11 11 11 12 11 11 13 12
16 15 15 15 15 15 15 16 16 17 18 19 20 21 20 19 15 15 16 16 17 17 15 13 12 12 12 12 15 13 9 7 7 9 10 11 11 10 9 8 9 10 9 9 12
16 16 16 16 16 16 16 17 17 18 19 20 20 21 20 16 16 16 17 15 16 15 14 14 12 13 12 13 14 13 14 10 9 10 10 8 8 8 8 7 9 8 9 7 10
16 16 16 16 16 17 17 18 18 18 20 20 20 22 19 15 19 16 17 15 16 15 14 14 13 14 13 13 14 13 14 11 11 12 11 9 9 6 6 6 11 7 6 7 9
17 16 17 17 17 18 18 19 19 20 20 21 21 22 17 17 17 15 16 14 14 14 14 15 14 13 13 13 13 14 13 15 14 13 14 13 10 6 5 8 9 10 5 8 10
17 18 18 18 19 19 20 20 20 21 21 21 21 21 16 21 16 16 15 13 13 14 15 15 14 13 12 14 15 15 14 16 16 15 15 17 18 17 8 8 4 3 4 7 10
17 19 19 19 20 20 21 21 22 22 22 21 21 18 18 20 16 16 15 13 14 13 14 14 12 15 12 13 14 16 18 20 18 17 17 18 23 2 7 13 4 4 4 5 9
18 18 19 20 20 21 22 23 23 23 23 22 21 18 21 18 16 15 15 14 13 12 12 13 11 11 15 12 16 17 18 20 18 16 19 17 20 20 19 6 9 7 4 5 9
19 20 20 20 20 21 23 24 26 24 24 21 19 20 23 17 18 17 16 14 13 14 14 14 15 15 15 15 19 19 20 19 21 17 19 17 23 20 19 17 7 3 6 6 8
21 21 22 21 20 22 24 25 24 23 21 19 19 23 21 20 18 16 16 14 15 15 17 17 17 18 17 16 22 18 19 20 21 20 20 24 31 30 25 21 13 20 7 5 8
24 25 24 22 21 20 21 20 23 24 22 24 21 22 19 17 17 17 16 16 16 18 21 20 21 21 19 18 19 18 21 24 23 22 26 29 38 34 35 27 11 8 9 11 11
25 26 27 25 22 20 18 20 20 20 28 25 26 26 21 18 21 19 15 19 20 23 20 23 28 25 20 19 21 23 25 28 28 24 25 34 43 39 28 13 12 12 13 13 12
22 23 26 25 21 24 24 22 19 20 29 30 26 27 26 23 27 23 16 19 22 23 23 28 25 19 22 22 22 25 25 27 29 29 29 37 43 36 28 23 21 13 13 14 15
23 23 23 17 22 25 28 22 21 20 34 36 31 30 26 22 32 23 19 22 24 26 23 28 26 24 22 24 22 30 24 26 29 31 35 27 46 44 37 33 25 21 18 15 15
22 23 20 20 22 25 23 23 19 20 42 28 26 21 23 27 26 27 23 26 30 27 25 30 26 26 29 29 23 30 23 23 25 28 34 32 38 39 30 35 30 23 18 18 19
23 22 23 27 25 24 21 16 17 27 43 29 25 25 25 27 27 24 24 23 25 29 32 33 26 26 27 24 23 17 21 24 26 28 39 30 30 46 29 30 29 26 25 24 25
26 26 23 22 26 19 16 19 30 38 28 33 30 27 27 28 28 27 28 30 32 35 40 35 35 29 25 25 23 23 24 33 35 33 38 29 31 32 34 28 26 30 30 30 22
28 27 25 26 22 16 18 30 41 29 28 22 23 27 34 26 28 29 28 33 33 32 34 38 45 33 31 32 31 28 29 33 38 37 37 29 38 39 28 29 26 28 24 25 27
26 27 28 25 22 21 24 39 42 38 30 26 24 27 29 29 31 31 33 35 32 30 36 35 42 30 28 28 26 32 36 30 36 37 44 40 43 46 36 28 28 30 31 31 28
25 27 29 23 20 24 33 47 42 37 28 27 34 28 33 30 31 30 32 33 35 30 28 31 41 30 27 24 26 29 20 30 30 39 43 41 41 37 32 33 30 32 34 32 22
24 28 23 18 17 29 46 43 42 38 32 37 41 37 33 29 30 33 33 33 29 28 26 31 34 34 27 33 31 28 33 29 28 32 39 44 43 25 27 29 33 33 27 21 17
23 30 22 12 29 33 46 40 36 30 33 43 38 39 37 33 32 33 36 33 21 20 27 30 32 42 40 30 30 32 36 33 39 39 36 40 48 27 26 29 28 26 24 22 18
29 28 21 21 37 42 40 44 41 38 38 36 41 44 46 48 49 46 46 35 31 32 32 28 33 43 42 38 35 38 37 35 36 35 43 46 47 31 29 28 26 27 25 25 27
27 34 30 29 32 38 43 46 45 39 46 44 42 40 42 47 47 48 48 40 40 41 35 27 34 41 49 41 30 38 40 39 38 44 48 47 46 44 40 37 33 33 35 39 41
30 36 29 36 42 38 34 39 43 46 42 37 48 47 43 48 49 53 49 44 37 37 36 34 45 44 49 49 44 44 42 37 39 44 46 48 46 58 42 41 42 45 48 50 51
33 35 32 34 32 38 43 46 44 39 38 42 52 49 48 56 52 52 46 45 44 37 41 39 51 46 59 52 50 52 45 46 45 46 46 48 53 39 44 44 46 48 47 49 48
30 28 31 37 39 39 42 42 45 44 47 45 45 48 52 50 45 51 52 49 45 46 44 43 43 46 57 51 48 52 52 51 48 47 44 49 45 51 52 48 49 50 46 46 45
Wind_Direction
261 263 265 267 270 274 279 283 284 286 286 280 279 280 283 282 287 284 276 278 279 268 268 277 289 292 296 295 289 293 348 105 98 94 93 86 103 77 53 52 103 100 65 60 85
263 265 268 272 275 279 282 284 288 288 288 285 283 282 284 283 285 281 279 281 276 272 275 282 286 290 292 291 287 293 327 82 28 76 55 98 95 86 53 56 104 118 114 43 101
267 269 271 274 278 282 285 287 288 290 289 286 286 283 285 286 279 279 282 287 281 279 279 280 288 286 293 289 291 297 305 337 356 2 13 69 90 68 60 95 128 126 125 103 119
269 270 273 276 279 281 284 287 290 293 290 288 288 286 283 288 268 283 286 290 281 281 278 279 282 285 288 292 295 304 304 320 336 339 346 7 17 43 110 126 15 119 76 123 141
269 273 275 276 278 282 284 286 290 291 291 291 289 288 286 278 278 292 289 292 285 281 277 277 281 285 287 292 298 299 305 304 315 327 330 340 353 347 149 164 356 2 70 145 159
271 273 275 278 280 282 283 285 288 290 291 294 293 288 286 269 286 287 292 294 290 282 278 278 280 285 293 292 294 299 302 303 310 321 325 317 315 318 3 346 2 26 128 154 168
275 273 275 277 280 282 283 285 286 288 291 292 293 293 282 275 287 286 289 291 290 287 280 282 286 283 290 294 297 300 296 298 306 312 317 315 300 317 342 330 23 134 158 170 183
276 278 277 277 280 282 283 283 284 287 288 290 292 290 274 284 286 286 284 287 292 294 289 288 292 294 289 300 300 300 303 296 307 312 306 310 315 312 317 349 198 193 191 191 197
278 276 277 280 282 284 285 282 281 285 288 292 289 282 272 287 278 280 281 280 285 287 287 287 285 287 289 292 292 296 293 298 300 310 307 305 305 318 322 328 341 325 215 225 222
274 274 274 279 284 286 285 283 283 285 286 291 288 277 275 274 277 277 280 279 280 279 279 280 283 280 282 283 282 292 295 298 299 306 302 298 288 292 307 319 321 317 323 258 237
272 268 271 276 284 290 291 285 280 276 277 269 275 272 279 279 283 276 277 273 276 275 268 276 272 271 275 280 287 295 296 295 302 306 301 296 281 292 288 305 305 284 246 241 246
275 271 266 271 278 287 294 282 282 286 274 274 271 272 277 278 273 273 275 268 268 266 270 272 268 273 279 279 283 287 290 291 297 303 302 296 278 289 303 265 284 261 253 256 265
285 280 270 268 275 277 276 282 295 294 276 273 272 269 269 268 268 266 264 271 270 267 265 266 276 280 272 276 279 284 287 292 294 301 302 297 290 295 305 308 309 290 267 283 270
285 284 279 270 273 272 271 282 284 296 273 269 269 270 267 268 266 270 261 269 269 266 269 271 273 275 276 276 279 281 289 292 295 298 295 306 290 285 297 301 308 311 306 294 287
288 287 278 268 273 271 279 275 277 284 265 274 267 280 269 260 266 265 266 267 262 263 267 270 272 270 271 275 279 283 292 294 296 296 297 296 295 295 306 303 308 310 308 310 310
287 290 285 262 269 273 271 279 270 262 259 271 270 268 262 265 265 270 262 271 270 265 268 270 277 275 276 280 281 285 292 296 297 296 289 292 296 291 307 309 313 319 317 322 323
282 282 282 277 265 269 274 270 266 261 270 265 267 266 265 263 264 264 259 257 258 261 262 269 268 273 274 275 281 279 283 285 286 286 286 298 291 289 303 310 313 314 314 317 324
280 278 276 269 276 266 266 259 255 265 258 275 274 270 261 264 266 264 263 259 259 263 268 265 266 263 265 266 272 269 272 276 281 284 289 295 289 297 309 309 310 313 314 316 317
284 278 273 271 266 262 255 253 253 254 263 264 275 269 266 265 264 262 261 263 262 255 262 268 268 274 275 274 264 271 267 277 279 285 286 286 290 295 302 305 309 310 311 312 313
282 277 270 273 264 257 255 253 257 258 263 263 259 267 267 268 262 259 263 269 265 262 263 272 270 275 275 276 273 269 274 275 275 279 281 285 289 290 305 309 314 312 312 317 324
284 273 277 267 260 255 252 255 258 259 261 259 260 263 266 268 264 265 267 269 268 270 257 265 269 274 274 267 264 268 268 275 279 277 280 285 287 300 306 308 309 311 318 331 333
280 269 284 255 254 257 253 257 260 266 261 260 264 262 262 262 268 267 262 267 275 269 266 267 272 267 268 277 273 270 270 263 270 276 279 282 283 298 301 307 311 319 316 321 324
271 272 285 260 256 255 260 259 261 261 260 264 261 261 262 262 265 264 266 270 269 272 273 269 268 268 271 273 273 269 268 269 271 277 273 275 280 297 297 301 305 307 307 307 309
270 267 268 263 266 261 259 260 260 263 260 262 265 265 264 263 261 265 266 270 268 267 269 265 267 264 265 273 278 272 270 265 266 270 270 273 270 275 284 292 296 299 299 298 298
263 264 267 262 258 261 264 264 261 260 262 266 261 260 262 262 263 262 264 267 271 269 267 262 265 266 267 269 274 274 274 271 266 266 271 276 275 249 282 286 288 291 291 290 289
261 261 265 268 269 261 259 261 262 264 266 265 260 263 263 261 262 265 267 266 268 272 267 268 267 269 267 269 269 269 270 271 269 270 274 273 278 259 287 289 288 289 292 291 291
260 268 266 265 262 262 261 263 265 266 266 266 268 268 265 265 272 270 268 267 269 266 269 269 269 266 267 267 271 267 264 265 270 270 269 271 268 284 284 288 291 291 291 291 291